Location: Larrial
(48.2758°N, 4.5331°W)
Time: 09:10:09
(UTC+00:00)

Cosmos 2322 Rocket - Pass Details

Date: 09 April 2020
Orbit: 834 x 849 km, 71.0° (Epoch: 25 May)

Event Time Altitude Azimuth Distance (km) Brightness Sun altitude
Rises 21:33:55 0° 337° (NNW) 3,408 6.5 -23.0°
Reaches altitude 10° 21:37:17 10° 357° (N) 2,467 5.2 -23.4°
Maximum altitude 21:40:55 17° 37° (NE) 2,001 4.2 -23.8°
Enters shadow 21:43:02 14° 63° (ENE) 2,164 4.2 -24.0°
